This demonstration page uses our WeatherBlox Daily Observations layout. Learn more.

Left ArrowRight Arrow

Hourly Observations for March 11, 2015

Temp ( °F °C ) Dew Point ( °F °C ) Humidity (%) Winds ( mph kmh ) Pressure ( in mb ) Visibility ( mi km ) Precip ( " mm )
12:16 am 00:16 Cloudy 39 4 N/A N/A N N/A 30.12 1020 5 8 N/A
12:35 am 00:35 Cloudy 39 4 N/A N/A W 3 6 30.12 1020 0 0 N/A
12:56 am 00:56 Cloudy 39 4 N/A N/A N N/A 30.12 1020 0 0 N/A
1:16 am 01:16 Cloudy 41 5 N/A N/A N N/A 30.12 1020 5 8 N/A
1:35 am 01:35 Cloudy 41 5 N/A N/A W 3 6 30.12 1020 5 8 N/A
1:56 am 01:56 Cloudy 41 5 N/A N/A W 5 7 30.12 1020 0 0 N/A
2:16 am 02:16 Cloudy 41 5 N/A N/A WNW 6 9 30.12 1020 0 0 N/A
2:35 am 02:35 Cloudy 41 5 N/A N/A W 3 6 30.12 1020 0 0 N/A
2:56 am 02:56 Cloudy 39 4 N/A N/A WSW 3 6 30.15 1021 0 0 N/A
3:15 am 03:15 Cloudy 39 4 N/A N/A W 3 6 30.15 1021 0 0 N/A
3:36 am 03:36 Cloudy 39 4 N/A N/A N N/A 30.15 1021 0 0 N/A
3:56 am 03:56 Cloudy 39 4 N/A N/A N N/A 30.15 1021 0 0 N/A
4:15 am 04:15 Cloudy 39 4 N/A N/A N N/A 30.15 1021 0 0 N/A
4:36 am 04:36 Cloudy 39 4 N/A N/A N N/A 30.15 1021 0 0 N/A
4:56 am 04:56 Cloudy 39 4 N/A N/A W 3 6 30.15 1021 0 0 N/A
5:15 am 05:15 Cloudy 39 4 N/A N/A WNW 3 6 30.15 1021 0 0 N/A
5:36 am 05:36 Cloudy 39 4 N/A N/A N N/A 30.15 1021 0 0 N/A
5:55 am 05:55 Cloudy 37 3 N/A N/A N N/A 30.18 1022 0 0 N/A
6:16 am 06:16 Cloudy 37 3 N/A N/A N N/A 30.21 1023 0 0 N/A
6:36 am 06:36 Cloudy 37 3 N/A N/A W 3 6 30.21 1023 5 8 N/A
6:55 am 06:55 Cloudy 37 3 N/A N/A N N/A 30.21 1023 5 8 N/A
7:16 am 07:16 Cloudy 37 3 N/A N/A W 3 6 30.24 1024 0 0 N/A
7:36 am 07:36 Cloudy 37 3 N/A N/A N N/A 30.24 1024 5 8 N/A
7:55 am 07:55 Cloudy 37 3 N/A N/A N N/A 30.24 1024 0 0 N/A
8:16 am 08:16 Cloudy 37 3 N/A N/A W 3 6 30.24 1024 0 0 N/A
8:35 am 08:35 Cloudy 37 3 N/A N/A WNW 3 6 30.24 1024 5 8 N/A
8:55 am 08:55 Cloudy 37 3 N/A N/A N N/A 30.24 1024 5 8 N/A
9:16 am 09:16 Cloudy 37 3 N/A N/A N N/A 30.24 1024 5 8 N/A
9:35 am 09:35 Cloudy 37 3 N/A N/A N N/A 30.24 1024 5 8 N/A
9:56 am 09:56 Cloudy 39 4 N/A N/A N N/A 30.24 1024 5 8 N/A
10:16 am 10:16 Cloudy 39 4 N/A N/A WSW 3 6 30.27 1025 5 8 N/A
10:35 am 10:35 Cloudy 39 4 N/A N/A WSW 3 6 30.27 1025 5 8 N/A
10:56 am 10:56 Cloudy 41 5 N/A N/A N N/A 30.24 1024 5 8 N/A
11:15 am 11:15 Cloudy 41 5 N/A N/A WSW 3 6 30.24 1024 0 0 N/A
11:35 am 11:35 Cloudy 43 6 N/A N/A N N/A 30.24 1024 1 1 N/A
11:56 am 11:56 Cloudy 45 7 N/A N/A WNW 3 6 30.24 1024 1 2 N/A
12:15 pm 12:15 Cloudy 45 7 N/A N/A N N/A 30.24 1024 2 3 N/A
12:36 pm 12:36 Cloudy 46 8 N/A N/A N N/A 30.24 1024 3 5 N/A
12:55 pm 12:55 Cloudy 48 9 N/A N/A N N/A 30.24 1024 4 6 N/A
1:15 pm 13:15 Mostly Cloudy 50 10 N/A N/A N N/A 30.24 1024 5 8 N/A
1:36 pm 13:36 Partly Cloudy 50 10 N/A N/A N N/A 30.24 1024 5 8 N/A
1:55 pm 13:55 Sunny 54 12 46 8 77 77 N N/A 30.24 1024 5 8 N/A
2:16 pm 14:16 Sunny 54 12 43 6 67 67 N N/A 30.24 1024 7 11 N/A
2:36 pm 14:36 Sunny 57 14 43 6 59 59 N N/A 30.21 1023 7 11 N/A
2:55 pm 14:55 Sunny 57 14 41 5 55 55 N N/A 30.18 1022 7 11 N/A
3:16 pm 15:16 Sunny 59 15 41 5 51 51 S 5 7 30.18 1022 5 8 N/A
3:35 pm 15:35 Sunny 59 15 43 6 55 55 S 5 7 30.18 1022 5 8 N/A
3:56 pm 15:56 Sunny 61 16 43 6 52 52 S 7 11 30.18 1022 5 8 N/A
4:16 pm 16:16 Sunny 61 16 43 6 52 52 SSE 6 9 30.18 1022 5 8 N/A
4:35 pm 16:35 Sunny 61 16 43 6 52 52 S 8 13 30.21 1023 5 8 N/A
4:56 pm 16:56 Sunny 61 16 45 7 55 55 S 5 7 30.21 1023 5 8 N/A
5:16 pm 17:16 Sunny 59 15 43 6 55 55 SSE 6 9 30.21 1023 5 8 N/A
5:35 pm 17:35 Sunny 59 15 45 7 59 59 ESE 7 11 30.21 1023 5 8 N/A
5:56 pm 17:56 Sunny 59 15 45 7 59 59 ESE 7 11 30.21 1023 5 8 N/A
6:15 pm 18:15 Partly Cloudy 59 15 43 6 55 55 E 7 11 30.21 1023 4 6 N/A
6:35 pm 18:35 Partly Cloudy 54 12 43 6 67 67 NNE 15 24 30.27 1025 3 5 N/A
6:56 pm 18:56 Partly Cloudy 52 11 43 6 72 72 NNE 12 19 30.27 1025 3 5 N/A
7:15 pm 19:15 undefined 50 10 45 7 82 82 NNE 6 9 30.27 1025 2 3 N/A
7:35 pm 19:35 undefined 48 9 48 9 100 100 NNE 8 13 30.30 1026 2 3 N/A
7:55 pm 19:55 undefined 46 8 N/A N/A NE 6 9 30.30 1026 3 4 N/A
8:15 pm 20:15 Cloudy 45 7 N/A N/A NE 7 11 30.33 1027 2 3 N/A
8:36 pm 20:36 Cloudy 45 7 N/A N/A NNE 8 13 30.33 1027 2 3 N/A
8:55 pm 20:55 Cloudy 46 8 N/A N/A NE 8 13 30.36 1028 3 5 N/A
9:15 pm 21:15 Cloudy 45 7 N/A N/A NNE 8 13 30.36 1028 3 5 N/A
9:36 pm 21:36 Mostly Cloudy 43 6 N/A N/A NNE 9 15 30.36 1028 3 5 N/A
9:55 pm 21:55 Partly Cloudy 41 5 N/A N/A NE 7 11 30.42 1030 3 5 N/A
10:16 pm 22:16 Clear 39 4 N/A N/A NE 6 9 30.42 1030 3 5 N/A
10:36 pm 22:36 Mostly Cloudy 39 4 N/A N/A NE 3 6 30.42 1030 3 5 N/A
10:55 pm 22:55 Mostly Cloudy 39 4 N/A N/A NE 7 11 30.42 1030 3 4 N/A
11:16 pm 23:16 Mostly Cloudy 37 3 N/A N/A NE 6 9 30.42 1030 2 3 N/A
11:36 pm 23:36 Mostly Cloudy 36 2 N/A N/A NE 5 7 30.42 1030 2 3 N/A
11:55 pm 23:55 Mostly Cloudy 36 2 N/A N/A NE 6 9 30.45 1031 2 3 N/A

Powered by AerisWeather